QPF
0.05 0.02 0.02 0.02 0.03 0.04 0.04 0.04 0.03 0.03 0.03 0.03 0.03 0.03 0.04 0.06 0.06 0.09 0.09 0.05 0.05 0.06 0.07 0.07 0.07 0.07 0.07 0.07 0.07 0.06 0.06 0.05 0.04 0.03 0.03 0.04 0.04 0.03 0.03 0.04 0.03 0.02 0.03
0.05 0.04 0.02 0.02 0.03 0.04 0.04 0.04 0.02 0.03 0.03 0.03 0.03 0.04 0.04 0.04 0.06 0.09 0.10 0.06 0.06 0.06 0.08 0.09 0.09 0.11 0.11 0.11 0.11 0.09 0.06 0.06 0.05 0.03 0.02 0.02 0.03 0.04 0.05 0.04 0.03 0.03 0.03
0.06 0.05 0.05 0.03 0.03 0.04 0.05 0.03 0.03 0.04 0.04 0.03 0.05 0.06 0.05 0.04 0.05 0.06 0.07 0.07 0.06 0.06 0.06 0.07 0.09 0.10 0.10 0.11 0.11 0.09 0.07 0.05 0.04 0.04 0.03 0.03 0.03 0.04 0.04 0.04 0.04 0.04 0.04
0.08 0.07 0.06 0.04 0.04 0.04 0.05 0.05 0.06 0.06 0.04 0.05 0.06 0.06 0.05 0.05 0.05 0.04 0.05 0.05 0.05 0.05 0.05 0.06 0.09 0.12 0.10 0.08 0.07 0.06 0.07 0.07 0.05 0.04 0.05 0.05 0.04 0.04 0.03 0.03 0.04 0.05 0.04
0.08 0.08 0.08 0.06 0.05 0.05 0.07 0.11 0.14 0.08 0.04 0.04 0.05 0.04 0.03 0.04 0.05 0.03 0.03 0.04 0.06 0.07 0.08 0.09 0.10 0.12 0.14 0.14 0.13 0.12 0.10 0.10 0.11 0.08 0.07 0.07 0.06 0.04 0.03 0.04 0.05 0.05 0.04
0.04 0.08 0.12 0.10 0.07 0.08 0.10 0.10 0.08 0.07 0.07 0.06 0.06 0.04 0.04 0.04 0.05 0.04 0.04 0.05 0.06 0.09 0.12 0.17 0.14 0.12 0.11 0.10 0.13 0.15 0.14 0.15 0.16 0.16 0.11 0.09 0.08 0.06 0.05 0.04 0.04 0.04 0.04
0.02 0.05 0.11 0.13 0.09 0.08 0.09 0.09 0.09 0.09 0.10 0.10 0.09 0.07 0.05 0.06 0.07 0.06 0.06 0.06 0.06 0.09 0.13 0.14 0.13 0.13 0.11 0.08 0.09 0.11 0.14 0.16 0.14 0.13 0.12 0.09 0.09 0.08 0.07 0.05 0.04 0.03 0.03
0.02 0.02 0.07 0.13 0.13 0.11 0.11 0.12 0.12 0.12 0.12 0.12 0.10 0.09 0.06 0.05 0.06 0.06 0.06 0.06 0.06 0.07 0.10 0.12 0.12 0.11 0.10 0.07 0.04 0.05 0.08 0.11 0.12 0.10 0.10 0.09 0.08 0.07 0.06 0.05 0.05 0.04 0.03
0.01 0.01 0.02 0.06 0.10 0.11 0.10 0.10 0.10 0.10 0.10 0.11 0.10 0.08 0.06 0.04 0.05 0.05 0.06 0.06 0.06 0.08 0.10 0.12 0.09 0.07 0.07 0.07 0.05 0.04 0.04 0.05 0.07 0.09 0.08 0.10 0.09 0.07 0.06 0.06 0.06 0.06 0.05
0.02 0.01 0.01 0.01 0.03 0.05 0.08 0.07 0.06 0.05 0.07 0.08 0.10 0.07 0.06 0.04 0.04 0.04 0.05 0.05 0.07 0.07 0.07 0.10 0.09 0.08 0.07 0.07 0.06 0.05 0.05 0.06 0.07 0.08 0.10 0.12 0.14 0.12 0.10 0.09 0.08 0.08 0.06
0.03 0.03 0.02 0.02 0.02 0.02 0.03 0.04 0.05 0.04 0.05 0.06 0.06 0.06 0.05 0.04 0.04 0.03 0.04 0.05 0.05 0.04 0.05 0.08 0.09 0.08 0.07 0.07 0.06 0.05 0.07 0.06 0.05 0.05 0.05 0.06 0.07 0.09 0.08 0.07 0.07 0.07 0.06
0.03 0.03 0.02 0.03 0.03 0.02 0.01 0.02 0.02 0.02 0.02 0.03 0.03 0.03 0.03 0.03 0.03 0.04 0.03 0.04 0.04 0.05 0.04 0.04 0.05 0.06 0.07 0.08 0.07 0.07 0.07 0.07 0.04 0.03 0.04 0.05 0.05 0.06 0.07 0.06 0.06 0.06 0.07
0.05 0.05 0.03 0.03 0.03 0.03 0.03 0.03 0.03 0.03 0.04 0.04 0.04 0.04 0.03 0.03 0.04 0.05 0.04 0.03 0.02 0.03 0.04 0.03 0.04 0.11 0.13 0.10 0.12 0.11 0.09 0.07 0.04 0.03 0.04 0.05 0.05 0.05 0.05 0.05 0.05 0.05 0.06
0.07 0.06 0.04 0.03 0.05 0.05 0.06 0.07 0.07 0.05 0.05 0.05 0.04 0.05 0.05 0.04 0.05 0.05 0.05 0.04 0.03 0.03 0.03 0.03 0.03 0.09 0.10 0.08 0.11 0.10 0.07 0.05 0.04 0.03 0.03 0.03 0.04 0.04 0.03 0.04 0.04 0.04 0.05
0.03 0.03 0.02 0.03 0.03 0.05 0.04 0.03 0.03 0.04 0.04 0.04 0.05 0.04 0.04 0.04 0.04 0.04 0.05 0.06 0.05 0.03 0.02 0.03 0.04 0.04 0.03 0.03 0.04 0.04 0.04 0.04 0.03 0.03 0.03 0.03 0.03 0.04 0.05 0.04 0.04 0.04 0.03
0.04 0.04 0.03 0.03 0.03 0.03 0.04 0.04 0.03 0.04 0.04 0.04 0.05 0.04 0.04 0.03 0.03 0.04 0.04 0.04 0.04 0.03 0.02 0.02 0.03 0.02 0.02 0.01 0.02 0.03 0.03 0.04 0.03 0.04 0.05 0.05 0.06 0.06 0.06 0.06 0.06 0.06 0.05
0.05 0.05 0.03 0.02 0.02 0.02 0.03 0.04 0.04 0.04 0.04 0.04 0.04 0.04 0.03 0.03 0.02 0.03 0.03 0.03 0.03 0.04 0.03 0.03 0.04 0.04 0.03 0.02 0.02 0.04 0.03 0.03 0.03 0.04 0.05 0.07 0.08 0.09 0.09 0.08 0.08 0.09 0.09
0.03 0.03 0.02 0.02 0.01 0.01 0.03 0.04 0.04 0.04 0.04 0.03 0.03 0.03 0.03 0.03 0.03 0.02 0.03 0.03 0.03 0.03 0.04 0.03 0.02 0.03 0.05 0.04 0.04 0.05 0.04 0.03 0.03 0.04 0.04 0.06 0.07 0.09 0.09 0.10 0.10 0.10 0.10
0.04 0.04 0.04 0.02 0.02 0.01 0.01 0.02 0.03 0.03 0.03 0.03 0.03 0.02 0.02 0.02 0.02 0.04 0.04 0.03 0.03 0.03 0.04 0.03 0.02 0.02 0.04 0.05 0.05 0.04 0.05 0.05 0.05 0.06 0.06 0.07 0.08 0.09 0.09 0.09 0.10 0.09 0.09
0.05 0.05 0.06 0.05 0.04 0.03 0.02 0.02 0.02 0.02 0.02 0.02 0.02 0.02 0.02 0.02 0.04 0.04 0.04 0.04 0.04 0.04 0.05 0.05 0.03 0.03 0.04 0.05 0.05 0.04 0.04 0.05 0.06 0.06 0.08 0.09 0.09 0.09 0.09 0.08 0.08 0.08 0.07
0.06 0.07 0.06 0.06 0.06 0.05 0.03 0.03 0.03 0.03 0.03 0.03 0.03 0.03 0.04 0.04 0.05 0.05 0.04 0.03 0.05 0.05 0.05 0.05 0.04 0.04 0.04 0.04 0.04 0.05 0.06 0.07 0.08 0.08 0.09 0.10 0.10 0.09 0.09 0.08 0.07 0.06 0.06
0.07 0.07 0.07 0.06 0.06 0.05 0.04 0.04 0.04 0.05 0.06 0.06 0.06 0.06 0.05 0.05 0.05 0.04 0.03 0.04 0.05 0.05 0.06 0.05 0.05 0.04 0.03 0.02 0.02 0.04 0.06 0.05 0.06 0.06 0.07 0.07 0.07 0.07 0.06 0.05 0.06 0.07 0.07
0.05 0.05 0.08 0.09 0.09 0.07 0.06 0.05 0.05 0.05 0.06 0.07 0.07 0.06 0.05 0.04 0.04 0.02 0.02 0.03 0.04 0.04 0.04 0.04 0.04 0.04 0.04 0.02 0.02 0.02 0.03 0.03 0.03 0.03 0.03 0.03 0.03 0.03 0.03 0.04 0.04 0.04 0.05
0.05 0.05 0.05 0.05 0.07 0.07 0.08 0.07 0.05 0.04 0.05 0.06 0.05 0.05 0.05 0.06 0.07 0.05 0.04 0.03 0.02 0.02 0.02 0.02 0.01 0.02 0.02 0.02 0.02 0.01 0.01 0.02 0.03 0.02 0.02 0.01 0.02 0.02 0.02 0.03 0.03 0.02 0.02
0.05 0.06 0.05 0.05 0.05 0.05 0.05 0.07 0.08 0.06 0.05 0.03 0.02 0.03 0.04 0.05 0.05 0.06 0.05 0.04 0.03 0.02 0.02 0.02 0.01 0.01 0.02 0.02 0.03 0.02 0.01 0.01 0.01 0.02 0.01 0.01 0.01 0.01 0.01 0.02 0.02 0.02 0.01
0.07 0.11 0.07 0.05 0.04 0.04 0.04 0.04 0.05 0.05 0.05 0.04 0.03 0.02 0.03 0.03 0.03 0.04 0.05 0.03 0.02 0.01 0.01 0.01 0.01 0.01 0.01 0.01 0.02 0.02 0.01 0.01 0.01 0.01 0.01 0.01 0.01 0.01 0.01 0.01 0.01 0.01 0.01
MSLP
1015.83 1015.94 1015.98 1016.00 1016.02 1016.09 1016.20 1016.35 1016.51 1016.66 1016.74 1016.75 1016.68 1016.54 1016.35 1016.17 1016.01 1015.90 1015.87 1015.90 1015.99 1016.12 1016.29 1016.47 1016.67 1016.87 1017.09 1017.31 1017.54 1017.78 1018.01 1018.23 1018.44 1018.64 1018.82 1019.00 1019.17 1019.34 1019.50 1019.64 1019.77 1019.87 1019.95
1015.36 1015.52 1015.61 1015.67 1015.74 1015.82 1015.95 1016.10 1016.26 1016.41 1016.50 1016.52 1016.46 1016.33 1016.14 1015.93 1015.73 1015.56 1015.46 1015.42 1015.46 1015.57 1015.73 1015.93 1016.16 1016.41 1016.66 1016.91 1017.15 1017.38 1017.59 1017.80 1018.01 1018.22 1018.43 1018.65 1018.88 1019.10 1019.30 1019.47 1019.60 1019.70 1019.77
1014.83 1015.03 1015.18 1015.31 1015.43 1015.56 1015.71 1015.87 1016.03 1016.18 1016.28 1016.31 1016.26 1016.14 1015.95 1015.73 1015.49 1015.27 1015.10 1015.00 1014.99 1015.05 1015.20 1015.42 1015.67 1015.95 1016.24 1016.51 1016.75 1016.97 1017.17 1017.36 1017.55 1017.76 1017.99 1018.24 1018.51 1018.77 1019.01 1019.21 1019.36 1019.46 1019.53
1014.26 1014.50 1014.71 1014.91 1015.10 1015.29 1015.47 1015.65 1015.82 1015.96 1016.06 1016.10 1016.07 1015.97 1015.79 1015.57 1015.31 1015.06 1014.85 1014.69 1014.63 1014.66 1014.78 1014.99 1015.26 1015.55 1015.85 1016.13 1016.38 1016.58 1016.76 1016.92 1017.09 1017.29 1017.52 1017.79 1018.08 1018.38 1018.65 1018.89 1019.06 1019.17 1019.23
1013.69 1013.95 1014.22 1014.49 1014.75 1014.99 1015.22 1015.42 1015.59 1015.74 1015.84 1015.89 1015.88 1015.81 1015.67 1015.47 1015.23 1014.97 1014.73 1014.54 1014.43 1014.42 1014.51 1014.69 1014.94 1015.24 1015.53 1015.81 1016.04 1016.23 1016.38 1016.51 1016.66 1016.84 1017.07 1017.34 1017.64 1017.96 1018.25 1018.51 1018.70 1018.82 1018.90
1013.13 1013.40 1013.71 1014.03 1014.35 1014.65 1014.91 1015.14 1015.32 1015.47 1015.58 1015.65 1015.68 1015.65 1015.57 1015.42 1015.22 1014.99 1014.76 1014.55 1014.41 1014.35 1014.39 1014.53 1014.75 1015.01 1015.28 1015.53 1015.74 1015.91 1016.04 1016.15 1016.28 1016.44 1016.66 1016.92 1017.23 1017.55 1017.86 1018.12 1018.33 1018.47 1018.55
1012.58 1012.84 1013.17 1013.53 1013.90 1014.25 1014.55 1014.79 1014.99 1015.14 1015.27 1015.37 1015.44 1015.48 1015.47 1015.40 1015.28 1015.10 1014.90 1014.69 1014.53 1014.43 1014.41 1014.48 1014.64 1014.84 1015.07 1015.28 1015.47 1015.62 1015.74 1015.84 1015.96 1016.12 1016.33 1016.59 1016.89 1017.20 1017.51 1017.78 1017.99 1018.14 1018.23
1012.03 1012.26 1012.59 1012.99 1013.39 1013.77 1014.10 1014.36 1014.57 1014.74 1014.88 1015.02 1015.15 1015.27 1015.35 1015.38 1015.35 1015.24 1015.09 1014.91 1014.73 1014.58 1014.50 1014.50 1014.58 1014.71 1014.88 1015.05 1015.21 1015.35 1015.47 1015.58 1015.71 1015.88 1016.09 1016.34 1016.64 1016.94 1017.24 1017.50 1017.71 1017.86 1017.96
1011.45 1011.66 1011.98 1012.39 1012.81 1013.22 1013.57 1013.85 1014.07 1014.25 1014.43 1014.60 1014.80 1014.99 1015.17 1015.30 1015.37 1015.35 1015.26 1015.11 1014.92 1014.74 1014.61 1014.53 1014.52 1014.58 1014.69 1014.82 1014.96 1015.10 1015.23 1015.37 1015.53 1015.72 1015.94 1016.21 1016.50 1016.79 1017.07 1017.32 1017.51 1017.65 1017.75
1010.83 1011.01 1011.33 1011.74 1012.17 1012.59 1012.96 1013.25 1013.49 1013.70 1013.89 1014.11 1014.36 1014.63 1014.90 1015.13 1015.29 1015.36 1015.33 1015.22 1015.04 1014.84 1014.65 1014.51 1014.43 1014.42 1014.47 1014.57 1014.70 1014.85 1015.01 1015.19 1015.40 1015.62 1015.88 1016.16 1016.45 1016.74 1017.00 1017.22 1017.39 1017.52 1017.60
1010.15 1010.32 1010.62 1011.03 1011.47 1011.90 1012.27 1012.58 1012.84 1013.06 1013.29 1013.54 1013.84 1014.17 1014.51 1014.82 1015.07 1015.22 1015.26 1015.19 1015.03 1014.83 1014.62 1014.43 1014.30 1014.24 1014.25 1014.32 1014.45 1014.62 1014.82 1015.05 1015.30 1015.58 1015.87 1016.17 1016.47 1016.74 1016.98 1017.18 1017.32 1017.42 1017.48
1009.40 1009.56 1009.86 1010.26 1010.70 1011.13 1011.52 1011.84 1012.11 1012.36 1012.61 1012.89 1013.22 1013.60 1013.99 1014.37 1014.69 1014.91 1015.01 1014.99 1014.88 1014.70 1014.48 1014.28 1014.13 1014.05 1014.03 1014.10 1014.23 1014.42 1014.65 1014.92 1015.22 1015.54 1015.87 1016.19 1016.49 1016.75 1016.97 1017.14 1017.25 1017.33 1017.37
1008.60 1008.75 1009.04 1009.42 1009.86 1010.29 1010.69 1011.03 1011.32 1011.58 1011.85 1012.16 1012.52 1012.92 1013.35 1013.77 1014.14 1014.42 1014.59 1014.64 1014.58 1014.45 1014.28 1014.10 1013.96 1013.87 1013.86 1013.92 1014.06 1014.26 1014.51 1014.81 1015.14 1015.48 1015.83 1016.16 1016.46 1016.72 1016.92 1017.06 1017.15 1017.20 1017.23
1007.73 1007.88 1008.15 1008.52 1008.95 1009.38 1009.78 1010.14 1010.45 1010.74 1011.04 1011.36 1011.73 1012.15 1012.60 1013.05 1013.46 1013.79 1014.03 1014.15 1014.18 1014.12 1014.02 1013.90 1013.80 1013.74 1013.74 1013.81 1013.95 1014.15 1014.40 1014.70 1015.03 1015.37 1015.72 1016.05 1016.34 1016.58 1016.77 1016.90 1016.97 1017.01 1017.03
1006.82 1006.95 1007.20 1007.56 1007.97 1008.40 1008.81 1009.19 1009.53 1009.85 1010.17 1010.51 1010.90 1011.32 1011.78 1012.25 1012.69 1013.06 1013.36 1013.57 1013.69 1013.73 1013.72 1013.69 1013.66 1013.65 1013.69 1013.76 1013.89 1014.08 1014.30 1014.57 1014.87 1015.19 1015.52 1015.82 1016.10 1016.33 1016.50 1016.62 1016.69 1016.73 1016.76
1005.87 1005.97 1006.20 1006.53 1006.93 1007.36 1007.79 1008.20 1008.57 1008.93 1009.28 1009.64 1010.04 1010.47 1010.93 1011.40 1011.86 1012.28 1012.64 1012.93 1013.15 1013.31 1013.41 1013.49 1013.54 1013.60 1013.67 1013.76 1013.87 1014.02 1014.21 1014.42 1014.67 1014.94 1015.22 1015.49 1015.74 1015.95 1016.11 1016.22 1016.30 1016.35 1016.39
1004.87 1004.95 1005.16 1005.47 1005.87 1006.31 1006.76 1007.20 1007.62 1008.01 1008.40 1008.79 1009.20 1009.63 1010.09 1010.56 1011.03 1011.48 1011.89 1012.26 1012.58 1012.85 1013.08 1013.26 1013.41 1013.54 1013.65 1013.75 1013.85 1013.96 1014.09 1014.24 1014.41 1014.62 1014.83 1015.06 1015.27 1015.46 1015.61 1015.72 1015.80 1015.86 1015.93
1003.85 1003.90 1004.10 1004.41 1004.81 1005.27 1005.76 1006.25 1006.71 1007.15 1007.58 1008.00 1008.42 1008.85 1009.30 1009.76 1010.24 1010.71 1011.16 1011.60 1012.00 1012.37 1012.71 1013.00 1013.24 1013.44 1013.59 1013.71 1013.80 1013.87 1013.94 1014.02 1014.12 1014.25 1014.40 1014.57 1014.74 1014.90 1015.03 1015.14 1015.22 1015.29 1015.37
1002.81 1002.85 1003.05 1003.38 1003.80 1004.30 1004.84 1005.37 1005.89 1006.39 1006.85 1007.30 1007.73 1008.17 1008.60 1009.05 1009.52 1009.99 1010.47 1010.94 1011.41 1011.87 1012.29 1012.67 1013.00 1013.27 1013.47 1013.61 1013.69 1013.73 1013.76 1013.78 1013.82 1013.88 1013.97 1014.08 1014.21 1014.33 1014.43 1014.52 1014.59 1014.66 1014.74
1001.78 1001.84 1002.06 1002.42 1002.89 1003.44 1004.03 1004.63 1005.20 1005.75 1006.25 1006.73 1007.17 1007.60 1008.03 1008.46 1008.90 1009.36 1009.84 1010.34 1010.85 1011.35 1011.84 1012.30 1012.70 1013.03 1013.27 1013.44 1013.53 1013.56 1013.56 1013.54 1013.53 1013.54 1013.58 1013.64 1013.72 1013.79 1013.86 1013.92 1013.96 1014.01 1014.06
1000.83 1000.92 1001.18 1001.60 1002.13 1002.74 1003.38 1004.04 1004.67 1005.26 1005.80 1006.30 1006.75 1007.18 1007.59 1008.00 1008.41 1008.85 1009.32 1009.82 1010.34 1010.87 1011.41 1011.91 1012.36 1012.74 1013.03 1013.23 1013.34 1013.38 1013.37 1013.34 1013.30 1013.27 1013.27 1013.29 1013.32 1013.35 1013.38 1013.39 1013.38 1013.38 1013.40
1000.03 1000.17 1000.50 1000.98 1001.57 1002.23 1002.93 1003.63 1004.31 1004.94 1005.51 1006.03 1006.49 1006.92 1007.32 1007.70 1008.09 1008.50 1008.95 1009.43 1009.95 1010.48 1011.03 1011.56 1012.04 1012.46 1012.79 1013.03 1013.17 1013.23 1013.23 1013.20 1013.15 1013.11 1013.08 1013.07 1013.06 1013.05 1013.02 1012.98 1012.92 1012.86 1012.81
999.50 999.69 1000.08 1000.62 1001.26 1001.97 1002.71 1003.44 1004.14 1004.80 1005.39 1005.92 1006.40 1006.82 1007.22 1007.59 1007.96 1008.35 1008.77 1009.23 1009.72 1010.25 1010.79 1011.33 1011.82 1012.26 1012.62 1012.89 1013.06 1013.15 1013.18 1013.16 1013.12 1013.07 1013.04 1013.00 1012.96 1012.92 1012.85 1012.75 1012.63 1012.50 1012.38
999.34 999.59 1000.03 1000.61 1001.28 1002.01 1002.75 1003.49 1004.20 1004.85 1005.45 1006.00 1006.48 1006.92 1007.32 1007.69 1008.06 1008.43 1008.83 1009.26 1009.73 1010.23 1010.76 1011.28 1011.77 1012.21 1012.59 1012.87 1013.07 1013.19 1013.24 1013.24 1013.21 1013.18 1013.14 1013.09 1013.04 1012.97 1012.87 1012.73 1012.56 1012.38 1012.20
999.66 999.95 1000.41 1000.99 1001.65 1002.36 1003.08 1003.79 1004.47 1005.12 1005.71 1006.26 1006.76 1007.21 1007.63 1008.02 1008.39 1008.76 1009.15 1009.56 1010.00 1010.48 1010.97 1011.46 1011.94 1012.37 1012.73 1013.02 1013.23 1013.36 1013.43 1013.45 1013.44 1013.41 1013.38 1013.34 1013.28 1013.20 1013.09 1012.94 1012.74 1012.53 1012.30
1000.49 1000.79 1001.23 1001.78 1002.39 1003.04 1003.70 1004.35 1004.98 1005.59 1006.17 1006.72 1007.23 1007.71 1008.15 1008.56 1008.96 1009.34 1009.73 1010.12 1010.54 1010.98 1011.44 1011.89 1012.34 1012.74 1013.08 1013.36 1013.56 1013.70 1013.77 1013.79 1013.79 1013.77 1013.74 1013.71 1013.66 1013.60 1013.49 1013.35 1013.16 1012.93 1012.70
Thickness
5778 5776 5775 5774 5772 5771 5770 5768 5767 5766 5765 5764 5763 5761 5760 5758 5757 5756 5755 5754 5753 5752 5752 5750 5749 5749 5748 5747 5745 5742 5740 5738 5736 5734 5732 5729 5727 5725 5723 5721 5720 5718 5717
5778 5776 5774 5773 5772 5771 5770 5768 5767 5765 5764 5763 5761 5760 5759 5758 5756 5755 5753 5752 5751 5751 5750 5749 5748 5747 5746 5746 5744 5741 5739 5737 5735 5733 5731 5728 5726 5724 5722 5720 5718 5717 5715
5778 5776 5774 5773 5772 5770 5769 5767 5766 5764 5762 5761 5760 5759 5758 5757 5756 5754 5753 5751 5750 5749 5749 5748 5746 5745 5744 5743 5742 5739 5737 5736 5734 5732 5730 5727 5725 5723 5721 5719 5717 5715 5713
5778 5776 5774 5773 5772 5770 5768 5765 5763 5761 5760 5759 5758 5757 5757 5756 5754 5753 5752 5750 5749 5748 5747 5746 5745 5743 5742 5741 5740 5738 5736 5734 5732 5730 5728 5726 5724 5722 5720 5718 5716 5714 5712
5778 5776 5774 5773 5771 5769 5767 5765 5762 5760 5757 5756 5756 5755 5755 5753 5752 5751 5750 5749 5748 5746 5745 5744 5743 5741 5740 5739 5738 5736 5735 5732 5731 5729 5727 5724 5723 5721 5719 5717 5716 5713 5711
5778 5776 5774 5772 5770 5767 5765 5763 5760 5759 5757 5755 5755 5753 5752 5752 5751 5750 5749 5748 5747 5745 5743 5742 5741 5739 5738 5737 5736 5734 5732 5731 5729 5727 5725 5723 5721 5719 5718 5716 5714 5713 5711
5777 5775 5773 5771 5769 5766 5764 5762 5760 5757 5755 5754 5750 5747 5748 5750 5749 5749 5748 5747 5745 5744 5742 5740 5739 5737 5736 5735 5734 5732 5731 5729 5728 5726 5724 5722 5720 5718 5716 5715 5713 5711 5710
5777 5775 5772 5769 5767 5765 5762 5760 5758 5755 5753 5752 5746 5740 5737 5739 5744 5747 5746 5745 5744 5743 5741 5740 5738 5736 5735 5733 5732 5731 5730 5728 5726 5724 5723 5721 5719 5717 5715 5713 5711 5710 5708
5776 5773 5771 5769 5767 5764 5761 5759 5757 5754 5749 5749 5748 5741 5733 5730 5734 5739 5742 5742 5741 5740 5740 5739 5737 5735 5733 5732 5731 5729 5728 5726 5724 5723 5722 5720 5719 5717 5715 5713 5711 5709 5707
5775 5773 5771 5769 5766 5763 5760 5759 5757 5754 5750 5746 5745 5745 5742 5738 5731 5729 5734 5737 5738 5737 5736 5736 5735 5734 5732 5730 5729 5728 5727 5725 5724 5722 5721 5720 5718 5716 5714 5712 5710 5708 5706
5773 5772 5770 5768 5765 5763 5761 5758 5756 5754 5751 5748 5744 5743 5740 5738 5735 5729 5726 5729 5732 5734 5734 5734 5733 5732 5731 5729 5728 5727 5726 5724 5723 5721 5720 5718 5716 5714 5712 5711 5709 5707 5706
5771 5770 5768 5766 5763 5761 5759 5757 5755 5753 5751 5749 5746 5744 5740 5736 5733 5730 5726 5725 5726 5729 5731 5731 5730 5730 5729 5728 5727 5726 5725 5723 5721 5720 5718 5715 5714 5712 5711 5709 5708 5706 5705
5767 5767 5766 5763 5761 5759 5757 5756 5753 5751 5750 5747 5745 5744 5742 5740 5738 5733 5728 5724 5723 5725 5727 5728 5728 5727 5726 5726 5725 5724 5723 5721 5719 5717 5715 5713 5712 5710 5709 5708 5706 5705 5704
5767 5766 5764 5762 5760 5758 5756 5753 5751 5750 5748 5746 5745 5744 5741 5740 5739 5736 5730 5725 5720 5719 5721 5722 5724 5724 5723 5723 5722 5721 5721 5719 5717 5715 5713 5711 5710 5708 5707 5706 5704 5703 5702
5767 5764 5762 5759 5757 5755 5753 5751 5748 5747 5746 5744 5743 5742 5740 5739 5738 5736 5733 5729 5721 5714 5714 5718 5719 5721 5721 5720 5719 5718 5718 5716 5715 5713 5712 5710 5708 5707 5705 5704 5702 5701 5700
5765 5762 5760 5757 5755 5753 5751 5748 5746 5745 5743 5742 5741 5739 5737 5736 5735 5734 5731 5728 5725 5718 5712 5716 5716 5717 5717 5717 5717 5715 5715 5714 5712 5711 5709 5707 5706 5705 5703 5702 5700 5699 5697
5761 5759 5757 5755 5752 5750 5748 5745 5743 5742 5739 5738 5737 5735 5734 5733 5731 5730 5728 5725 5722 5718 5711 5712 5714 5714 5713 5712 5712 5711 5710 5709 5708 5707 5705 5704 5703 5702 5700 5699 5698 5696 5695
5758 5756 5754 5752 5750 5747 5745 5742 5739 5738 5736 5734 5733 5731 5730 5730 5727 5726 5724 5721 5719 5716 5711 5707 5707 5707 5707 5708 5707 5706 5705 5704 5703 5702 5701 5700 5698 5697 5696 5695 5694 5692 5691
5754 5752 5751 5748 5746 5744 5741 5739 5737 5735 5733 5731 5729 5727 5726 5724 5721 5721 5719 5716 5715 5713 5709 5705 5702 5702 5702 5702 5700 5699 5699 5698 5698 5697 5696 5695 5693 5692 5691 5690 5689 5688 5686
5750 5748 5747 5744 5742 5740 5738 5736 5734 5731 5729 5727 5726 5724 5722 5720 5717 5716 5715 5712 5710 5707 5704 5701 5698 5697 5696 5696 5694 5692 5690 5691 5691 5692 5690 5689 5688 5687 5686 5685 5684 5683 5682
5747 5745 5742 5739 5737 5735 5733 5731 5729 5727 5724 5722 5721 5720 5718 5717 5715 5713 5711 5708 5705 5701 5698 5695 5692 5690 5689 5688 5687 5686 5684 5683 5683 5684 5682 5682 5681 5680 5680 5679 5679 5678 5677
5742 5740 5737 5735 5732 5731 5730 5727 5725 5722 5720 5717 5715 5714 5713 5711 5710 5708 5707 5705 5702 5697 5693 5690 5686 5684 5683 5683 5682 5680 5676 5674 5673 5676 5674 5674 5675 5673 5673 5673 5674 5673 5672
5736 5733 5731 5730 5727 5726 5724 5722 5720 5717 5715 5712 5710 5708 5708 5707 5704 5702 5700 5699 5696 5694 5691 5686 5682 5680 5679 5678 5676 5673 5671 5669 5668 5670 5668 5667 5668 5666 5668 5668 5668 5668 5667
5731 5728 5726 5724 5721 5720 5718 5717 5715 5712 5710 5708 5706 5704 5701 5700 5699 5696 5694 5691 5688 5687 5685 5682 5679 5677 5676 5674 5672 5670 5667 5665 5664 5664 5663 5659 5661 5660 5663 5662 5662 5662 5660
5726 5723 5721 5719 5716 5715 5713 5712 5710 5707 5704 5702 5701 5700 5697 5694 5693 5690 5686 5683 5680 5679 5679 5677 5675 5673 5671 5668 5666 5662 5659 5656 5655 5655 5656 5653 5653 5653 5654 5655 5656 5655 5654
5721 5719 5716 5714 5712 5709 5708 5706 5704 5701 5697 5695 5694 5693 5692 5690 5687 5684 5680 5676 5673 5672 5671 5669 5667 5666 5664 5662 5660 5657 5654 5650 5648 5647 5649 5647 5646 5644 5643 5646 5647 5647 5646